TIGRISAT (40043 NORAD) Tracking and Keplerian Element Data

This shows tracking and keplerian element data for the satellite.

Feedback or suggestion? Click here.




ElementValue
Catalog40043
NameTIGRISAT
Epoch Orbit57205
Epoch Day34.99071745
Epoch Year2025
RAAN194.5281
Inclination97.7162
Eccentricity0.0051535
Argument of Perigee267.2083
Mean Anonmoly92.3232
Mean Motion14.81750701
Decay Rate5.259E-05
L11 40043U 14033AK 25034.99071745 .00005259 00000+0 65810-3 0 9991
L22 40043 97.7162 194.5281 0051535 267.2083 92.3232 14.81750701572056



Live tracking and technical data element details for TIGRISAT (NORAD 40043). TIGRISAT can be tracked NOW for your location showing map with azimuth and elevation plus other details from your city location.







IsCatalogInMostPopularTable: catalog: 40043, numindb: 423
Update: records affected: 1



GetName: 40043 TIGRISAT

Hit Count: updated at: Thu, 15 May 2025 10:28:04 GMT